Weather in Gmelinka

Russia / Volgograd Oblast     50°22′44″N   46°54′38″E
temp.,
°C
wind,
m/s
gust,
m/s
humid.,
%
clouds,
%
prec.,
mm/h
press.,
hPa
HPBL,
m
19 january, wed
wed1900:00−1sse71497100 0.3 1014575
03:00−1sse71395100 1.2 1014454
06:00−1s61297100 1.2 1014477
09:00−1s51097100 2.4 1015411
12:000ssw4792100 0.3 1016576
15:00−1ssw2492100 0.3 1017214
18:00−1se1196100 0.0 101710
21:00−2se1199100 0.3 101710
20 january, thu
thu2000:00−3ne119889 0.6 101718
03:00−7se2298100 0.8 101722
06:00−7nw229794 0.4 101821
09:00−8nw229780 0.6 101939
12:00−6wnw229560 0.1 101995
15:00−10wnw229637 0.1 101915
18:00−15nw229948 0.0 10209
21:00−17nnw1110083 0.0 10209
21 january, fri
fri2100:00−19w2210060 0.0 10219
03:00−20nw0010067 0.0 10219
06:00−20ne11100100 0.0 10209
09:00−18sse2210097 0.0 102122
12:00−11sse349669 0.0 1020104
15:00−11sse3696100 0.0 1019117
18:00−10se51195100 0.0 1018202
21:00−8sse71494100 0.0 1017322
22 january, sat
sat2200:00−6sse71494100 0.1 1016358
03:00−5sse71496100 0.9 1015402
06:00−3s71397100 1.4 1015442
09:00−2s61197100 3.1 1017481
12:00−2s51097100 0.8 1018489
15:00−1s71398100 2.6 1018595
18:00−2sse81497100 2.4 1020501
21:00−3se71395100 3.1 1020505
23 january, sun
sun2300:00−4se71393100 0.1 1021406
03:00−4se61192100 0.1 1022331
06:00−5ese51095100 0.0 1023262
09:00−5ese51096100 0.3 1024328
12:00−4ese51194100 1.2 1024380
15:00−4ese61389100 1.3 1024368
18:00−6e71387100 0.0 1025282
21:00−7e71487100 0.0 1026292